WN4MDN Weather Reports


Display with metric or nautical units.
time (UTC)temp
F
wind
direction
speed
MPH
gust
MPH
rain 1hr
in
rain 24hr
in
rain mn
in
humidity
%
barometer
mb
20260905140534 85 231 1.0 5.0 0.00 0.00 0.00 80 1015.3
20260905135535 84 240 2.0 8.0 0.00 0.00 0.00 81 1015.2
20260905135033 84 220 2.0 8.0 0.00 0.00 0.00 84 1015.2
20260905134557 83 202 4.0 6.0 0.00 0.00 0.00 83 1015.1
20260905134035 83 215 2.0 5.0 0.00 0.00 0.00 84 1015.2
20260905133533 82 229 1.0 4.0 0.00 0.00 0.00 84 1015.2
20260905133101 82 221 2.0 4.0 0.00 0.00 0.00 86 1015.3
20260905132533 82 213 3.0 4.0 0.00 0.00 0.00 86 1015.3
20260905132031 82 290 1.0 4.0 0.00 0.00 0.00 87 1015.2
20260905131604 81 219 1.0 3.0 0.00 0.00 0.00 88 1015.2
20260905131034 81 286 1.0 3.0 0.00 0.00 0.00 88 1015.2
20260905130535 80 225 1.0 3.0 0.00 0.00 0.00 89 1015.3
20260905130101 80 211 1.0 4.0 0.00 0.00 0.00 90 1015.3
20260905125538 79 194 3.0 4.0 0.00 0.00 0.00 89 1015.2
20260905125032 79 213 1.0 2.0 0.00 0.00 0.00 91 1015.2
20260905124555 78 260 0.0 2.0 0.00 0.00 0.00 92 1015.1
20260905124033 78 189 1.0 2.0 0.00 0.00 0.00 91 1015.0
20260905123531 78 189 0.0 2.0 0.00 0.00 0.00 92 1015.0
20260905123106 77 0 0.0 2.0 0.00 0.00 0.00 94 1015.1
20260905122537 76 189 0.0 2.0 0.00 0.00 0.00 93 1015.1
20260905122032 76 0 0.0 2.0 0.00 0.00 0.00 95 1015.1
20260905121558 75 0 0.0 2.0 0.00 0.00 0.00 96 1015.1
20260905121032 74 0 0.0 2.0 0.00 0.00 0.00 95 1015.1
20260905120532 74 189 0.0 2.0 0.00 0.00 0.00 96 1015.1
20260905120058 73 0 0.0 0.0 0.00 0.00 0.00 96 1015.0
20260905115531 73 0 0.0 2.0 0.00 0.00 0.00 96 1015.0
20260905115031 72 0 0.0 2.0 0.00 0.00 0.00 95 1014.9
20260905114559 72 189 0.0 2.0 0.00 0.00 0.00 95 1014.7
20260905114034 71 0 0.0 2.0 0.00 0.00 0.00 95 1014.8
20260905113534 71 0 0.0 2.0 0.00 0.00 0.00 95 1014.8
20260905113055 71 189 0.0 2.0 0.00 0.00 0.00 95 1014.7
20260905112534 71 0 0.0 2.0 0.00 0.00 0.00 94 1014.6
20260905112033 71 189 0.0 1.0 0.00 0.00 0.00 94 1014.5
20260905111558 71 188 0.0 1.0 0.00 0.00 0.00 95 1014.5
20260905111031 71 0 0.0 0.0 0.00 0.00 0.00 95 1014.4
20260905110533 71 0 0.0 2.0 0.00 0.00 0.00 95 1014.4
20260905110054 72 0 0.0 2.0 0.00 0.00 0.00 95 1014.4
20260905105532 71 0 0.0 0.0 0.00 0.00 0.00 95 1014.3
20260905105032 71 0 0.0 0.0 0.00 0.00 0.00 95 1014.3
20260905104600 72 0 0.0 0.0 0.00 0.00 0.00 95 1014.2
20260905104035 72 0 0.0 1.0 0.00 0.00 0.00 95 1014.2
20260905103533 72 0 0.0 2.0 0.00 0.00 0.00 95 1014.2
20260905103058 72 0 0.0 2.0 0.00 0.00 0.00 95 1014.4
20260905102532 72 0 0.0 2.0 0.00 0.00 0.00 95 1014.3
20260905102035 72 187 0.0 2.0 0.00 0.00 0.00 95 1014.2
20260905101605 72 187 0.0 2.0 0.00 0.00 0.00 95 1014.2
20260905101035 72 187 0.0 2.0 0.00 0.00 0.00 95 1014.1
20260905100531 72 187 0.0 2.0 0.00 0.00 0.00 95 1014.1
20260905100117 72 0 0.0 1.0 0.00 0.00 0.00 95 1014.1
20260905095534 71 187 1.0 2.0 0.00 0.00 0.00 95 1014.0
20260905095034 71 187 1.0 2.0 0.00 0.00 0.00 95 1014.2
20260905094558 71 0 0.0 2.0 0.00 0.00 0.00 95 1014.1
20260905094033 71 187 0.0 2.0 0.00 0.00 0.00 95 1014.0
20260905093534 71 187 0.0 2.0 0.00 0.00 0.00 95 1014.0
20260905093057 71 187 0.0 0.0 0.00 0.00 0.00 95 1014.0
20260905092535 71 0 0.0 0.0 0.00 0.00 0.00 95 1014.0
20260905092034 71 0 0.0 0.0 0.00 0.00 0.00 94 1014.1
20260905091603 71 0 0.0 0.0 0.00 0.00 0.00 94 1014.2
20260905091031 71 0 0.0 2.0 0.00 0.00 0.00 94 1014.2
20260905090535 71 0 0.0 2.0 0.00 0.00 0.00 94 1014.2
20260905090052 72 0 0.0 2.0 0.00 0.00 0.00 95 1014.2
20260905085535 72 187 1.0 2.0 0.00 0.00 0.00 95 1014.1
20260905085033 71 187 0.0 2.0 0.00 0.00 0.00 95 1014.1
20260905084600 71 0 0.0 1.0 0.00 0.00 0.00 94 1014.2
20260905084034 71 0 0.0 1.0 0.00 0.00 0.00 94 1014.2
20260905083534 71 0 0.0 1.0 0.00 0.00 0.00 94 1014.2
20260905083109 71 187 0.0 1.0 0.00 0.00 0.00 94 1014.2
20260905082533 72 187 0.0 1.0 0.00 0.00 0.00 94 1014.1
20260905082035 72 187 1.0 2.0 0.00 0.00 0.00 94 1014.1
20260905081554 72 187 0.0 2.0 0.00 0.00 0.00 94 1014.0
20260905081034 72 187 0.0 2.0 0.00 0.00 0.00 94 1014.1
20260905080534 72 0 0.0 0.0 0.00 0.00 0.00 94 1014.1
20260905080058 72 0 0.0 0.0 0.00 0.00 0.00 94 1014.1
20260905075533 72 0 0.0 0.0 0.00 0.00 0.00 94 1014.0
20260905075033 72 0 0.0 0.0 0.00 0.00 0.00 94 1014.1
20260905074558 72 0 0.0 0.0 0.00 0.00 0.00 94 1014.1
20260905074034 72 0 0.0 0.0 0.00 0.00 0.00 94 1014.2
20260905073533 72 0 0.0 0.0 0.00 0.00 0.00 94 1014.2
20260905073104 72 0 0.0 2.0 0.00 0.00 0.00 94 1014.2
20260905072535 72 0 0.0 2.0 0.00 0.00 0.00 93 1014.1
20260905072036 72 187 0.0 2.0 0.00 0.00 0.00 94 1014.1
20260905071603 73 0 0.0 2.0 0.00 0.00 0.00 94 1014.1
20260905071036 73 0 1.0 2.0 0.00 0.00 0.00 94 1014.1
20260905070535 73 187 1.0 2.0 0.00 0.00 0.00 94 1014.2
20260905070101 72 284 0.0 2.0 0.00 0.00 0.00 94 1014.3
20260905065536 72 284 0.0 2.0 0.00 0.00 0.00 94 1014.3
20260905065034 72 0 0.0 2.0 0.00 0.00 0.00 94 1014.3
20260905064616 72 284 0.0 2.0 0.00 0.00 0.00 94 1014.5
20260905064035 72 284 0.0 2.0 0.00 0.00 0.00 94 1014.6
20260905063535 72 284 0.0 2.0 0.00 0.00 0.00 94 1014.6
20260905063101 72 284 0.0 2.0 0.00 0.00 0.00 93 1014.7
20260905062537 73 284 1.0 2.0 0.00 0.00 0.00 93 1014.6
20260905062036 73 280 2.0 2.0 0.00 0.00 0.00 92 1014.6
20260905061606 73 0 0.0 2.0 0.00 0.00 0.00 93 1014.6
20260905061035 73 0 0.0 2.0 0.00 0.00 0.00 93 1014.7
20260905060535 73 280 1.0 1.0 0.00 0.00 0.00 93 1014.8
20260905060100 73 280 1.0 2.0 0.00 0.00 0.00 93 1014.7
20260905055536 73 280 0.0 2.0 0.00 0.00 0.00 93 1014.8
20260905055035 73 280 0.0 1.0 0.00 0.00 0.00 93 1014.9
20260905054710 73 280 0.0 1.0 0.00 0.00 0.00 93 1014.9
20260905054036 73 280 0.0 1.0 0.00 0.00 0.00 93 1015.1
20260905053539 73 280 0.0 2.0 0.00 0.00 0.00 93 1015.2
20260905053102 73 0 0.0 2.0 0.00 0.00 0.00 93 1015.3
20260905052537 73 280 1.0 2.0 0.00 0.00 0.00 93 1015.4
20260905052035 73 280 0.0 2.0 0.00 0.00 0.00 93 1015.4
20260905051602 74 280 1.0 2.0 0.00 0.00 0.00 92 1015.5
20260905051036 74 280 0.0 2.0 0.00 0.00 0.00 92 1015.5
20260905050536 74 0 0.0 2.0 0.00 0.00 0.00 93 1015.6
20260905050056 74 0 0.0 1.0 0.00 0.00 0.00 93 1015.6
20260905045536 74 0 0.0 1.0 0.00 0.00 0.00 93 1015.6
20260905045034 74 280 0.0 2.0 0.00 0.00 0.00 92 1015.6
20260905044608 74 0 0.0 2.0 0.00 0.00 0.00 92 1015.6
20260905044036 74 0 0.0 2.0 0.00 0.00 0.00 92 1015.6
20260905043535 74 280 1.0 2.0 0.00 0.00 0.00 92 1015.6
20260905043105 74 0 0.0 2.0 0.00 0.00 0.00 92 1015.7
20260905042537 74 280 1.0 2.0 0.00 0.00 0.00 91 1015.7
20260905042035 74 0 0.0 2.0 0.00 0.00 0.00 92 1015.7
20260905041603 74 280 0.0 2.0 0.00 0.00 0.00 92 1015.6
20260905041035 74 0 0.0 2.0 0.00 0.00 0.00 91 1015.7
20260905040537 74 0 0.0 4.0 0.00 0.00 0.00 91 1015.7
20260905040108 74 280 3.0 4.0 0.00 0.00 0.00 91 1015.6
20260905035535 75 155 0.0 0.0 0.00 0.00 0.00 89 1015.6
20260905035035 75 0 0.0 0.0 0.00 0.00 0.00 89 1015.6
20260905034607 75 0 0.0 0.0 0.00 0.00 0.00 89 1015.6
20260905034034 75 0 0.0 0.0 0.00 0.00 0.00 89 1015.6
20260905033537 75 0 0.0 1.0 0.00 0.00 0.00 89 1015.6
20260905033106 76 0 0.0 1.0 0.00 0.00 0.00 89 1015.6
20260905032536 76 155 1.0 2.0 0.00 0.00 0.00 89 1015.5
20260905032038 76 155 1.0 2.0 0.00 0.00 0.00 88 1015.4
20260905031610 76 0 0.0 2.0 0.00 0.00 0.00 87 1015.5
20260905031035 76 155 1.0 2.0 0.00 0.00 0.00 87 1015.5
20260905030533 77 154 0.0 0.0 0.00 0.00 0.00 87 1015.4
20260905025535 77 0 0.0 2.0 0.00 0.00 0.00 86 1015.4
20260905025036 77 154 1.0 2.0 0.00 0.00 0.00 86 1015.3
20260905024602 77 155 1.0 2.0 0.00 0.00 0.00 86 1015.1
20260905024037 77 155 0.0 1.0 0.00 0.00 0.00 85 1015.3
20260905023535 77 155 0.0 3.0 0.00 0.00 0.00 85 1015.3
20260905023100 77 155 1.0 4.0 0.00 0.00 0.00 85 1015.3
20260905022535 77 159 1.0 4.0 0.00 0.00 0.00 85 1015.4
20260905022036 77 159 1.0 2.0 0.00 0.00 0.00 85 1015.4
20260905021559 77 159 0.0 1.0 0.00 0.00 0.00 85 1015.3
20260905021036 77 159 1.0 2.0 0.00 0.00 0.00 85 1015.4
20260905020534 77 159 0.0 2.0 0.00 0.00 0.00 85 1015.4
20260905020100 78 159 0.0 2.0 0.00 0.00 0.00 85 1015.6
20260905015536 78 159 0.0 2.0 0.00 0.00 0.00 84 1015.5
20260905015035 78 159 1.0 4.0 0.00 0.00 0.00 84 1015.4
20260905014558 78 159 1.0 4.0 0.00 0.00 0.00 84 1015.3
20260905014037 78 150 2.0 3.0 0.00 0.00 0.00 84 1015.3
20260905013535 78 150 1.0 2.0 0.00 0.00 0.00 84 1015.4
20260905013057 78 150 0.0 2.0 0.00 0.00 0.00 83 1015.4
20260905012537 78 150 1.0 2.0 0.00 0.00 0.00 83 1015.3
20260905012034 79 150 1.0 2.0 0.00 0.00 0.00 82 1015.3
20260905011600 79 150 1.0 2.0 0.00 0.00 0.00 82 1015.3
20260905011034 79 150 1.0 2.0 0.00 0.00 0.00 81 1015.3
20260905010534 79 151 1.0 2.0 0.00 0.00 0.00 81 1015.3
20260905010107 79 171 0.0 2.0 0.00 0.00 0.00 81 1015.3
20260905005535 79 171 1.0 2.0 0.00 0.00 0.00 81 1015.2
20260905005038 79 171 1.0 2.0 0.00 0.00 0.00 80 1015.2
20260905004558 79 0 0.0 2.0 0.00 0.00 0.00 81 1015.3
20260905004034 79 171 0.0 2.0 0.00 0.00 0.00 80 1015.3
20260905003537 79 171 0.0 2.0 0.00 0.00 0.00 80 1015.3
20260905003055 80 171 0.0 2.0 0.00 0.00 0.00 80 1015.3
20260905002532 80 171 0.0 2.0 0.00 0.00 0.00 80 1015.3
20260905002034 80 171 0.0 2.0 0.00 0.00 0.00 78 1015.3
20260905001551 80 171 0.0 2.0 0.00 0.00 0.00 79 1015.3
20260905001036 81 171 0.0 4.0 0.00 0.00 0.00 77 1015.1
20260905000534 81 171 1.0 4.0 0.00 0.00 0.00 76 1015.0
20260905000100 81 0 1.0 4.0 0.00 0.00 0.00 76 1015.0
20260904235534 81 164 1.0 4.0 0.00 0.01 0.00 76 1014.9
20260904235033 81 196 0.0 3.0 0.00 0.01 0.00 77 1014.8
20260904234600 81 197 1.0 4.0 0.00 0.01 0.00 77 1014.7
20260904234036 82 188 2.0 4.0 0.00 0.01 0.00 78 1014.7
20260904233535 82 159 1.0 3.0 0.00 0.01 0.00 79 1014.7
20260904233102 82 210 1.0 4.0 0.00 0.01 0.00 79 1014.7
20260904232536 82 209 2.0 5.0 0.00 0.01 0.00 79 1014.9
20260904232032 82 213 3.0 5.0 0.00 0.01 0.00 79 1014.7
20260904231608 83 236 2.0 4.0 0.00 0.01 0.00 79 1014.7
20260904231031 83 239 1.0 3.0 0.00 0.01 0.00 79 1014.7
20260904230534 83 233 0.0 2.0 0.00 0.01 0.00 78 1014.7
20260904230104 83 277 0.0 2.0 0.00 0.01 0.00 78 1014.6
20260904225534 83 277 0.0 2.0 0.00 0.02 0.00 77 1014.5
20260904225033 83 0 0.0 2.0 0.00 0.02 0.00 78 1014.5
20260904224600 83 277 0.0 2.0 0.00 0.02 0.00 78 1014.4
20260904224034 83 277 0.0 2.0 0.00 0.02 0.00 77 1014.2
20260904223534 83 0 0.0 6.0 0.00 0.02 0.00 78 1014.1
20260904223057 83 0 0.0 6.0 0.00 0.02 0.00 77 1014.1
20260904222536 83 281 1.0 4.0 0.00 0.02 0.00 76 1014.0
20260904222036 83 273 1.0 2.0 0.00 0.02 0.00 76 1013.9
20260904221606 83 0 0.0 4.0 0.00 0.02 0.00 76 1013.9
20260904221036 83 230 0.0 4.0 0.00 0.02 0.00 75 1013.9
20260904220536 83 226 1.0 4.0 0.00 0.02 0.00 73 1013.8
20260904220104 83 281 1.0 6.0 0.00 0.02 0.00 74 1013.8
20260904215535 84 281 1.0 6.0 0.00 0.09 0.00 73 1013.9
20260904215035 84 271 2.0 6.0 0.00 0.09 0.00 72 1013.8
20260904214600 85 281 1.0 4.0 0.00 0.09 0.00 72 1013.8
20260904214035 85 276 2.0 6.0 0.00 0.09 0.00 71 1013.7
20260904213535 85 277 1.0 6.0 0.00 0.09 0.00 71 1013.8
20260904213105 86 269 2.0 6.0 0.00 0.09 0.00 69 1013.9
20260904212535 87 310 1.0 4.0 0.00 0.09 0.00 67 1014.0
20260904212035 87 256 1.0 7.0 0.00 0.09 0.00 66 1014.1
20260904211558 88 227 2.0 7.0 0.00 0.09 0.00 63 1014.2
20260904211036 89 279 2.0 8.0 0.00 0.09 0.00 63 1014.2
20260904210535 90 197 5.0 9.0 0.00 0.09 0.00 61 1014.1
20260904210057 90 189 3.0 9.0 0.00 0.09 0.00 60 1014.1
20260904205535 90 212 4.0 8.0 0.00 0.21 0.00 61 1014.2
20260904205036 90 226 4.0 9.0 0.00 0.21 0.00 61 1014.4
20260904204601 90 230 6.0 11.0 0.00 0.21 0.00 62 1014.5
20260904204036 90 234 6.0 11.0 0.00 0.21 0.00 63 1014.4
20260904203537 90 214 6.0 11.0 0.00 0.21 0.00 62 1014.4
20260904203101 90 200 7.0 14.0 0.00 0.21 0.00 61 1014.5
20260904202536 91 210 9.0 14.0 0.00 0.21 0.00 58 1014.5
20260904202036 91 219 5.0 10.0 0.00 0.21 0.00 57 1014.4
20260904201557 92 209 5.0 11.0 0.00 0.21 0.00 56 1014.3
20260904201034 91 156 6.0 11.0 0.00 0.21 0.00 57 1014.1
20260904200538 91 199 5.0 11.0 0.00 0.21 0.00 55 1013.9
20260904200112 91 184 5.0 12.0 0.00 0.21 0.00 55 1014.0
20260904195539 91 207 7.0 12.0 0.00 0.21 0.00 60 1014.2
20260904195038 91 134 7.0 11.0 0.00 0.21 0.00 63 1014.3
20260904194603 91 159 7.0 12.0 0.00 0.21 0.00 63 1014.5
20260904194036 91 153 8.0 12.0 0.00 0.21 0.00 63 1014.4
20260904193536 92 146 6.0 11.0 0.00 0.21 0.00 63 1014.3
20260904193100 91 217 5.0 11.0 0.00 0.21 0.00 60 1014.4
20260904192536 91 123 6.0 11.0 0.00 0.21 0.00 62 1014.6
20260904192036 92 165 4.0 10.0 0.00 0.21 0.00 58 1014.6
20260904191600 92 198 7.0 11.0 0.00 0.21 0.00 55 1014.6
20260904191037 92 216 5.0 11.0 0.00 0.21 0.00 52 1014.9
20260904190535 92 215 6.0 11.0 0.00 0.21 0.00 54 1015.0
20260904190055 92 200 5.0 9.0 0.00 0.21 0.00 53 1015.0
20260904185536 92 175 3.0 10.0 0.00 0.21 0.00 54 1015.0
20260904185036 92 172 5.0 10.0 0.00 0.21 0.00 53 1015.0
20260904184618 92 206 6.0 9.0 0.00 0.21 0.00 53 1015.0
20260904184033 92 240 1.0 10.0 0.00 0.21 0.00 57 1015.1
20260904183538 92 205 4.0 10.0 0.00 0.21 0.00 51 1015.2
20260904183059 91 196 7.0 10.0 0.00 0.21 0.00 54 1015.4
20260904182546 91 112 5.0 10.0 0.00 0.21 0.00 55 1015.5
20260904182035 92 214 4.0 11.0 0.00 0.21 0.00 58 1015.5
20260904181558 91 181 4.0 11.0 0.00 0.21 0.00 58 1015.5
20260904181035 91 202 5.0 10.0 0.00 0.21 0.00 60 1015.5
20260904180534 91 182 4.0 12.0 0.00 0.21 0.00 60 1015.5
20260904180105 91 140 5.0 11.0 0.00 0.21 0.00 58 1015.6
20260904175536 91 155 4.0 9.0 0.00 0.21 0.00 62 1015.7
20260904175035 91 251 4.0 8.0 0.00 0.21 0.00 59 1015.7
20260904174555 91 230 2.0 8.0 0.00 0.21 0.00 59 1015.9
20260904174035 91 225 5.0 8.0 0.00 0.21 0.00 57 1015.9
20260904173536 91 223 2.0 11.0 0.00 0.21 0.00 63 1015.8
20260904173110 91 212 5.0 11.0 0.00 0.21 0.00 62 1015.8
20260904172536 91 203 4.0 10.0 0.00 0.21 0.00 57 1015.8
20260904172035 90 232 5.0 10.0 0.00 0.21 0.00 60 1015.9
20260904171600 90 240 4.0 10.0 0.00 0.21 0.00 61 1016.0
20260904171035 90 220 5.0 10.0 0.00 0.21 0.00 61 1016.2
20260904170536 89 195 7.0 10.0 0.00 0.21 0.00 58 1016.3
20260904165538 89 221 6.0 12.0 0.00 0.21 0.00 60 1016.3
20260904165037 89 194 5.0 12.0 0.00 0.21 0.00 65 1016.4
20260904164607 90 176 6.0 11.0 0.00 0.21 0.00 64 1016.4
20260904164037 90 180 5.0 12.0 0.00 0.21 0.00 61 1016.3
20260904163536 89 228 6.0 12.0 0.00 0.21 0.00 63 1016.4
20260904163103 89 195 5.0 10.0 0.00 0.21 0.00 62 1016.4
20260904162536 89 229 5.0 10.0 0.00 0.21 0.00 60 1016.6
20260904162034 89 228 5.0 10.0 0.00 0.21 0.00 63 1016.6
20260904161609 89 253 4.0 10.0 0.00 0.21 0.00 66 1016.6
20260904161037 89 254 5.0 10.0 0.00 0.21 0.00 69 1016.6
20260904160536 88 205 2.0 10.0 0.00 0.21 0.00 68 1016.7
20260904160100 88 216 6.0 10.0 0.00 0.21 0.00 67 1016.7
20260904155534 88 235 5.0 10.0 0.00 0.21 0.00 69 1016.8
20260904155036 88 221 5.0 10.0 0.00 0.21 0.00 68 1016.9
20260904154611 88 221 6.0 10.0 0.00 0.21 0.00 69 1016.9
20260904154035 87 219 2.0 10.0 0.00 0.21 0.00 74 1016.8
20260904153534 86 252 6.0 10.0 0.00 0.21 0.00 72 1016.9
20260904153103 86 225 2.0 7.0 0.00 0.21 0.00 74 1016.9
20260904152536 86 236 2.0 7.0 0.00 0.21 0.00 73 1017.0
20260904152033 86 198 3.0 7.0 0.00 0.21 0.00 73 1017.0
20260904151558 87 286 3.0 8.0 0.00 0.21 0.00 76 1017.0
20260904151036 86 242 4.0 8.0 0.00 0.21 0.00 77 1016.9
20260904150536 85 219 4.0 7.0 0.00 0.21 0.00 76 1016.9
20260904150059 85 259 3.0 7.0 0.00 0.21 0.00 77 1016.8
20260904145536 86 228 2.0 7.0 0.00 0.21 0.00 76 1016.8
20260904145034 86 238 3.0 7.0 0.00 0.21 0.00 77 1016.9
20260904144558 86 182 3.0 8.0 0.00 0.21 0.00 78 1016.8
20260904144035 85 194 4.0 8.0 0.00 0.21 0.00 79 1016.8
20260904143535 86 194 4.0 9.0 0.00 0.21 0.00 77 1016.6
20260904143102 86 219 5.0 9.0 0.00 0.21 0.00 77 1016.6
20260904142536 85 233 3.0 7.0 0.00 0.21 0.00 82 1016.5
20260904142034 85 227 2.0 8.0 0.00 0.21 0.00 84 1016.5
20260904141603 84 233 5.0 8.0 0.00 0.21 0.00 81 1016.5
20260904141036 84 221 4.0 9.0 0.00 0.21 0.00 80 1016.4